Whitefish Bay: Past 24 Hour Conditions

 

Greater Sudbury Airport

04:00 AM EDT 20 August 2014
This table is a summary of hourly weather conditions for the past 24 hours.
Date / Time
(EDT)
Wind(knots) Conditions Visibility(km) Pressure(kPa) Air tempC) Relative humidity(%) Dew pointC)
20 August 2014
4:00 ESE 8 Cloudy 24 101.1 15 96 15
3:00 E 8 Mostly Cloudy 16 101.1 15 98 15
2:00 ESE 10 Rainshower 13 101.1 15 99 15
1:00 ESE 9 Light Rainshower 16 101.1 16 93 14
0:00 E 9 Light Rain 24 101.1 15 95 14
19 August 2014
23:00 SE 7 Light Rain 10 101.1 16 95 15
22:00 E 5 Light Rain 19 101.1 15 97 15
21:00 SSE 3 Light Rain 16 101.1 16 94 15
20:00 SE 4 Light Rain 16 101.1 17 84 14
19:00 ESE 6 Mostly Cloudy 24 101.1 19 78 15
18:00 ESE 7 Mostly Cloudy 24 101.0 19 77 15
17:00 ESE 9 Mostly Cloudy 24 101.1 19 69 13
16:00 SSE 11 Mostly Cloudy 24 101.1 19 73 14
15:00 SSE 6 Light Rainshower 24 101.1 18 86 15
14:00 SSE 7 Light Rainshower 19 101.2 17 89 15
13:00 SSE 8 Mostly Cloudy 19 101.2 19 77 15
12:00 SE 7 Mostly Cloudy 19 101.2 17 80 14
11:00 ESE 7 Light Rainshower 24 101.2 15 86 13
10:00 SSE 9 Mostly Cloudy 24 101.2 15 81 12
9:00 SE 8 Mostly Cloudy 32 101.2 14 84 11
8:00 SE 7 Mostly Cloudy 32 101.2 12 88 11
7:00 SE 8 Mostly Cloudy 32 101.2 12 89 10
6:00 SE 8 Mostly Cloudy 32 101.2 12 90 11
5:00 SE 7 Mostly Cloudy 24 101.2 12 84 10
4:00 ESE 5 Cloudy 24 101.2 12 82 9
 
Map of Great Lakes - Lake Erie and Lake Ontario marine weather areas Egbert N Huron - 45003 W Erie - 45005 S Huron - 45008 Lake Ontario - 45012 Port Stanley - 45132 Prince Edward Point - 45135 Georgian Bay - 45137 Grimsby - 45139 Port Colborne - 45142 South Georgian Bay - 45143 Lake St Clair - 45147 South Lake Huron - 45149 Lake Simcoe - 45151 Lake Nipissing - 45152 North Channel - 45154 Ajax - 45159 Sault Ste. Marie Airport Greater Sudbury Airport North Bay Airport Gore Bay-Manitoulin Airport Great Duck Island Brockville Grenadier Island Kemptville Kingston Airport Collingwood Lagoon City Muskoka Airport Parry Sound Harbour Lake Simcoe Regional Airport Wiarton Airport Goderich Sarnia Chris Hadfield Airport Tobermory Harrow AAFC Port Weller St. Catharines Airport Southeast Shoal Vineland Station Welland-Pelham Windsor Airport Burlington Lift Bridge Cobourg Hamilton Munro Int'l Airport Oshawa Municipal Airport Point Petre Toronto City Centre Airport Toronto Pearson Int'l Airport CFB Trenton Peterborough Municipal Airport Killarney Western Islands CFB Borden Cove Island Long Point Port Colborne Erieau Point Pelee Toronto Buttonville Municipal Airport
Legend: buoyBuoy land stationLand Station » US Marine Weather